CDT,Max TemperatureF,Mean TemperatureF,Min TemperatureF,Max Dew PointF,MeanDew PointF,Min DewpointF,Max Humidity, Mean Humidity, Min Humidity, Max Sea Level PressureIn, Mean Sea Level PressureIn, Min Sea Level PressureIn, Max VisibilityMiles, Mean VisibilityMiles, Min VisibilityMiles, Max Wind SpeedMPH, Mean Wind SpeedMPH, Max Gust SpeedMPH,PrecipitationIn, CloudCover, Events, WindDirDegrees
2012-8-1,93,81,69,73,67,57,88,68,41,29.95,29.87,29.80,10,10,10,12,5,18,0.00,1,Rain-Thunderstorm,215
2012-8-2,91,78,66,72,62,55,100,65,31,29.90,29.88,29.85,10,10,10,13,5,,0.00,1,,346
2012-8-3,89,76,64,70,63,61,100,70,38,29.90,29.85,29.75,10,9,2,21,5,36,0.00,1,Rain-Thunderstorm,132
2012-8-4,78,70,62,68,60,54,100,79,42,30.02,29.88,29.79,10,10,5,20,7,24,0.00,4,Rain-Thunderstorm,272
2012-8-5,77,66,55,59,53,46,100,66,38,30.22,30.15,30.03,10,10,10,14,7,17,0.00,1,,287
2012-8-6,89,71,53,66,60,52,94,67,43,30.13,30.04,29.95,10,10,10,8,3,,0.00,0,,171
2012-8-7,86,75,64,75,61,52,100,68,33,30.04,30.01,29.96,10,10,7,9,2,,0.00,0,,25
2012-8-8,75,68,60,64,61,55,94,77,61,30.04,30.00,29.95,10,10,7,15,5,26,0.00,3,Rain-Thunderstorm,58
2012-8-9,75,66,57,66,57,52,100,74,44,30.15,30.05,30.02,10,9,0,16,5,26,0.00,3,Fog,353
2012-8-10,78,66,53,57,51,46,100,67,32,30.20,30.16,30.11,10,10,10,10,5,,0.00,1,,35
2012-8-11,77,62,48,66,55,46,100,76,44,30.13,30.08,30.02,10,10,1,6,1,,0.00,0,,161
2012-8-12,64,60,57,64,59,55,100,95,77,30.05,30.03,30.01,10,10,3,6,1,,0.00,6,Rain,304
2012-8-13,80,68,55,70,58,52,100,77,39,30.06,30.03,29.99,10,10,10,13,5,18,0.00,2,,298
2012-8-14,77,64,51,66,56,50,100,77,46,30.02,29.96,29.87,10,10,5,7,1,,0.00,3,Rain,96
2012-8-15,84,72,60,72,66,55,100,85,62,29.87,29.78,29.69,10,10,4,15,6,21,0.00,5,Rain-Thunderstorm,147
2012-8-16,69,62,55,61,51,43,100,69,40,30.07,29.96,29.83,10,10,10,20,12,29,0.00,4,,308
2012-8-17,75,62,48,52,46,41,94,64,31,30.14,30.09,30.04,10,10,10,9,5,,0.00,1,,298
2012-8-18,78,63,48,59,49,45,100,63,30,30.05,30.01,29.97,10,10,10,14,2,21,0.00,2,,265
2012-8-19,78,64,51,64,52,45,100,70,32,30.06,30.02,29.99,10,10,4,8,3,,0.00,2,,15
2012-8-20,80,64,48,61,47,37,100,61,23,30.05,30.03,30.00,10,10,10,7,1,9,0.00,1,,4
2012-8-21,84,66,48,55,49,46,94,60,29,30.08,30.04,29.99,10,10,10,7,1,,0.00,1,,184
2012-8-22,77,68,59,66,57,50,94,69,47,30.00,29.92,29.86,10,10,4,18,5,23,0.00,2,Rain-Thunderstorm,137
2012-8-23,87,76,66,79,66,59,94,77,58,29.89,29.83,29.76,10,10,7,16,5,23,0.00,3,Rain-Thunderstorm,153
2012-8-24,91,76,60,77,66,61,100,73,43,29.86,29.82,29.80,10,9,2,12,3,,0.00,1,,162
2012-8-25,78,72,66,75,68,63,100,92,73,29.95,29.92,29.87,10,9,2,9,3,,0.00,6,Rain-Thunderstorm,172
2012-8-26,86,74,60,70,63,52,100,75,33,30.06,29.99,29.95,10,9,3,7,2,,0.00,4,,265
2012-8-27,87,71,55,68,57,52,100,66,29,30.17,30.12,30.07,10,10,10,7,1,,0.00,2,,341
2012-8-28,87,76,64,70,65,57,88,75,49,30.14,30.05,29.97,10,10,10,13,7,18,0.00,1,Thunderstorm,108
2012-8-29,89,76,64,72,64,61,94,69,40,29.97,29.87,29.76,10,10,7,15,8,17,0.00,1,,114
2012-8-30,87,76,66,66,61,55,78,64,35,29.98,29.79,29.70,10,10,10,14,6,18,0.00,1,,222
2012-8-31,84,70,55,61,51,43,100,59,23,30.14,30.10,29.98,10,10,5,13,5,16,0.00,0,,40